NANOSATC-BR1

Last updated on Wed Sep 17 2025 00:03:48 GMT+0000 (Coordinated Universal Time)

1 40024U 14033Q 25259.52107903 .00014472 00000+0 66015-3 0 9999 2 40024 98.0949 264.5040 0006522 69.9666 290.2270 15.20732213612231
UTC large
Height (km)
Speed (km/s)
/
Latitude / Longitude
Inclination (degrees)
Orbital Period (minutes)
Azimuth
Elevation
Range (km)
Doppler Factor

Next 0 passes for location: London (51.5072 / 0.1276)

Sorry there are no passes over London.